DELTA 1 DEB, 42091

Orbit data source: Space-Track

DELTA 1 DEB, 42091 is space debris in SSO originally from a launch on Sun, 15 Dec 1968 UTC launched from the Air Force Western Test Range (AFWTR). Debris objects in space refer to the collection of defunct objects orbiting the Earth. Examples of debris include non-operational satellites, rocket bodies, and fragments generated from explosions, collisions, or faulty payload assembly.

Loading next visibility...
Identifier
42091, 1968-114T
Orbit
SSO
Country
Flag of USUS
Related business
Manufacturer
Aerojet
Mission
Spacecraft
Bus & Motor
Unknown
Mass
Unknown
Launch date (UTC)
1968-12-15 (57 years ago)
Launch vehicle
Unknown
Launch site
Air Force Western Test Range (AFWTR)
Object type
Payload
Rocket body
Debris
Shape & HBR
Unknown shape, 0.1 m
Radar Cross Section
Small (<0.1 m²)

Expand to show TLE details & history
Last TLE update: 1 week ago

TLE from 1 week ago
0 DELTA 1 DEB
1 42091U 68114T   26027.78702612  .00000073  00000-0  78818-3 0  9991
2 42091 101.4698  10.4487 0036004 213.8923 268.2153 12.47188991554610
Epoch: 2026-01-27T18:53Z
TLE epoch observation values (Epoch: 2026-01-27T18:53:19.056Z)
Latitude
56.59095°
Longitude
157.88063°
Altitude
1,486.528 km
Speed
7.125 km/s
True Right ascension
13h 53m 05s
True Declination
56° 26' 51"
Sunlit
Object was in daylight at epoch
Visualization orbit readout
Latitude
Unknown
Longitude
Unknown
Altitude
Unknown
Speed
Unknown
Apparent Right ascension
Unknown
Apparent Declination
Unknown
Sunlit
N/A
Visualization observer readout
Local Sidereal Time
15:04:59
Azimuth
Unknown
Elevation
Unknown
Doppler factor
Unknown
Orbital elements
Apogee altitude
1,502.079 km
Perigee altitude
1,445.539 km
Semi-major axis
7,851.946 km
Eccentricity
0.0036
Inclination
101.4698°
RAAN
10.4487°
Arg. of periapsis
213.8923°
True anomaly
267.80299°
Mean anomaly
268.2153°
Eccentric anomaly
268.00914°
Mean motion
3.11944 °/min
Orbital period
115.41 mins
BSTAR
0.00078818
Loading maneuver chart data...
Computing Atmospheric mass density...
Loading historical data...
Loading historical data...
Loading historical data...
Loading historical data...
Loading historical data...
Loading historical data...
Loading historical data...

Documentation

Showing up to 5 results
|